Great Falls, MT

8:49 AM MDT on March 23, 2017 (GMT -0600)
Great Falls International

Weather History for KGTF - February, 2014

Change the Weather History Date:

Sunday, February 9, 2014

  Actual Average Record
Temperature  
Mean Temperature -1 °F 26 °F  
Max Temperature 4 °F 37 °F 63 °F (2016)
Min Temperature -6 °F 16 °F -35 °F (1939)
Degree Days  
Heating Degree Days 66 38  
Month to date heating degree days 618 350  
Since 1 July heating degree days 4869 4801  
Cooling Degree Days 0 0  
Month to date cooling degree days 0 0  
Year to date cooling degree days 0 0  
Moisture  
Dew Point -5 °F    
Average Humidity 82    
Maximum Humidity 91    
Minimum Humidity 72    
Precipitation  
Precipitation 0.07 in 0.02 in 0.31 in (1929)
Month to date precipitation 0.34 0.14  
Year to date precipitation 1.64 0.65  
Snow  
Snow 0.40 in 0.30 in 5.50 in (1999)
Month to date snowfall 5.6 2.5  
Since 1 July snowfall 47.6 34.3  
Snow Depth 7.00 in    
Sea Level Pressure  
Sea Level Pressure 30.25 in    
Wind  
Wind Speed 4 mph (East)    
Max Wind Speed 10 mph    
Max Gust Speed 10 mph    
Visibility 7 miles    
Events Snow    
T = Trace of Precipitation, MM = Missing Value Source: NWS Daily Summary

Daily Weather History Graph

Daily Weather History Graph

Search for Another Location

Airport or City:

Trip Planner

Search our weather history database for the weather conditions in past years. The results will help you decide how hot, cold, wet, or windy it might be!

Date:

Astronomy

Feb. 09, 2014 Rise Set
Actual Time 7:40 AM MST 5:39 PM MST
Civil Twilight 7:08 AM MST 6:11 PM MST
Nautical Twilight 6:31 AM MST 6:48 PM MST
Astronomical Twilight 5:56 AM MST 7:23 PM MST
Moon 1:15 PM MST (2/9) 3:55 AM MST (2/9)
Length of Visible Light 11h 03m
Length of Day
9h 59m
Waxing Gibbous, 77% of the Moon is Illuminated
Feb 9
Waxing Gibbous
Feb 14
Full
Feb 22
Last Quarter
Mar 1
New
Mar 8
First Quarter

Hourly Weather History & Observations

Time (MST) Temp. Windchill Dew Point Humidity Pressure Visibility Wind Dir Wind Speed Gust Speed Precip Events Conditions
12:28 AM -2.2 °F - -7.6 °F 78% 30.15 in 10.0 mi Calm Calm - N/A   Overcast
12:49 AM -2.2 °F - -5.8 °F 85% 30.14 in 10.0 mi Calm Calm - N/A   Scattered Clouds
12:53 AM -2.9 °F - -6.0 °F 87% 30.42 in 10.0 mi Calm Calm - N/A   Partly Cloudy
1:53 AM -6.0 °F - -9.0 °F 87% 30.42 in 10.0 mi Calm Calm - N/A   Clear
2:53 AM -2.9 °F -11.2 °F -6.0 °F 87% 30.38 in 10.0 mi ENE 3.5 mph - N/A   Clear
3:53 AM -2.0 °F - -4.0 °F 91% 30.36 in 9.0 mi Calm Calm - N/A   Partly Cloudy
4:53 AM -2.0 °F -10.1 °F -4.0 °F 91% 30.36 in 9.0 mi NNE 3.5 mph - N/A   Overcast
5:53 AM -0.9 °F -11.0 °F -4.0 °F 87% 30.38 in 5.0 mi NE 4.6 mph - N/A   Overcast
6:14 AM -2.2 °F -12.5 °F -5.8 °F 85% 30.08 in 1.8 mi ENE 4.6 mph - 0.00 in Snow Light Snow
6:36 AM -2.2 °F -14.2 °F -5.8 °F 85% 30.08 in 1.2 mi ENE 5.8 mph - 0.01 in Snow Light Snow
6:53 AM -0.9 °F -12.7 °F -5.1 °F 83% 30.38 in 1.5 mi ENE 5.8 mph - 0.02 in Snow Light Snow
7:07 AM -2.2 °F -14.2 °F -5.8 °F 85% 30.09 in 1.2 mi ENE 5.8 mph - 0.00 in Snow Light Snow
7:24 AM -2.2 °F -14.2 °F -5.8 °F 85% 30.09 in 1.5 mi ENE 5.8 mph - 0.01 in Snow Light Snow
7:36 AM -0.4 °F -10.4 °F -5.8 °F 78% 30.10 in 1.0 mi East 4.6 mph - 0.02 in Snow Light Snow
7:49 AM -0.4 °F -10.4 °F -5.8 °F 78% 30.10 in 0.8 mi East 4.6 mph - 0.02 in Snow Light Snow
7:53 AM -0.9 °F -11.0 °F -5.1 °F 83% 30.40 in 1.0 mi East 4.6 mph - 0.02 in Snow Light Snow
8:47 AM -2.2 °F -10.4 °F -5.8 °F 85% 30.12 in 1.5 mi ESE 3.5 mph - 0.02 in Snow Light Snow
8:53 AM -2.0 °F -12.2 °F -5.1 °F 87% 30.41 in 3.0 mi ESE 4.6 mph - 0.02 in Snow Light Snow
9:06 AM -2.2 °F -14.2 °F -5.8 °F 85% 30.11 in 2.0 mi East 5.8 mph - 0.00 in   Overcast
9:13 AM -2.2 °F -14.2 °F -5.8 °F 85% 30.11 in 1.5 mi East 5.8 mph - 0.00 in Snow Light Snow
9:24 AM -2.2 °F -12.5 °F -5.8 °F 85% 30.11 in 2.0 mi East 4.6 mph - 0.00 in Snow Light Snow
9:53 AM -0.9 °F -14.1 °F -5.1 °F 83% 30.39 in 3.0 mi East 6.9 mph - 0.00 in Snow Light Snow
10:06 AM -0.4 °F -12.0 °F -5.8 °F 78% 30.10 in 4.0 mi East 5.8 mph - 0.01 in   Overcast
10:28 AM -2.2 °F -12.5 °F -5.8 °F 85% 30.10 in 9.0 mi ESE 4.6 mph - 0.01 in   Scattered Clouds
10:53 AM -2.0 °F -13.9 °F -6.0 °F 83% 30.39 in 10.0 mi SE 5.8 mph - 0.01 in   Clear
11:53 AM -0.0 °F -7.9 °F -5.1 °F 79% 30.37 in 10.0 mi ESE 3.5 mph - N/A   Partly Cloudy
12:53 PM 1.9 °F -10.6 °F -4.0 °F 76% 30.34 in 10.0 mi East 6.9 mph - N/A   Mostly Cloudy
1:53 PM 1.9 °F -10.6 °F -4.0 °F 76% 30.31 in 10.0 mi East 6.9 mph - N/A   Mostly Cloudy
2:53 PM 3.0 °F -8.0 °F -4.0 °F 73% 30.27 in 10.0 mi East 5.8 mph - N/A   Scattered Clouds
3:53 PM 3.9 °F -3.4 °F -2.9 °F 73% 30.28 in 10.0 mi East 3.5 mph - N/A   Clear
4:53 PM 1.0 °F -12.9 °F -4.0 °F 79% 30.28 in 10.0 mi ENE 8.1 mph - N/A   Clear
5:53 PM -2.0 °F -16.6 °F -5.1 °F 87% 30.28 in 10.0 mi East 8.1 mph - N/A   Clear
6:53 PM -2.9 °F -13.3 °F -6.0 °F 87% 30.27 in 10.0 mi ESE 4.6 mph - N/A   Overcast
7:53 PM -0.0 °F - -4.0 °F 83% 30.25 in 10.0 mi Calm Calm - N/A   Overcast
8:53 PM -0.0 °F - -2.9 °F 88% 30.25 in 10.0 mi Calm Calm - N/A   Overcast
9:53 PM 1.0 °F - -2.9 °F 83% 30.24 in 10.0 mi Calm Calm - N/A   Overcast
10:53 PM 1.0 °F - -2.9 °F 83% 30.24 in 10.0 mi Calm Calm - N/A   Overcast
11:53 PM -2.9 °F - -5.1 °F 90% 30.25 in 10.0 mi Calm Calm - N/A   Partly Cloudy